Location: Newark
(48.1500°N, 2.9667°W)
Time: 02:52:35
(UTC+00:00)

Altair - Pass Details

Date: 02 February 2020
Orbit: 1502 x 1682 km, 47.2° (Epoch: 19 February)

Event Time Altitude Azimuth Distance (km) Brightness Sun altitude
Rises 12:40:55 0° 290° (WNW) 4,933 10.0 24.9°
Reaches altitude 10° 12:44:14 10° 285° (WNW) 3,948 9.6 24.8°
Maximum altitude 12:53:40 46° 217° (SW) 2,148 9.5 24.7°
Drops below altitude 10° 13:02:59 10° 148° (SSE) 3,888 10.5 24.4°
Sets 13:06:15 0° 143° (SE) 4,853 10.7 24.3°
